Vorticity
nan nan nan nan nan nan nan nan nan nan nan nan nan nan nan nan nan nan nan nan nan nan nan nan nan nan nan nan nan nan nan nan nan nan nan nan nan nan nan nan nan nan nan nan nan nan nan nan nan
nan 8 6 7 5 4 1 2 3 12 12 3 -0 4 6 8 16 14 10 11 5 5 4 7 6 5 5 4 4 6 6 5 4 4 5 4 4 4 5 4 3 3 4 5 5 5 4 4 nan
nan 6 6 8 5 6 7 6 4 7 4 2 8 6 6 9 9 6 10 8 4 3 6 11 7 4 5 4 3 4 5 4 4 5 3 5 4 5 4 4 4 5 3 4 5 5 5 5 nan
nan 7 8 7 4 6 12 7 2 2 6 14 8 6 11 8 9 15 10 4 3 3 9 12 7 5 4 3 3 5 5 5 4 4 4 4 4 5 4 5 5 4 5 4 4 5 5 4 nan
nan 7 5 4 8 10 13 8 5 0 11 14 8 5 4 15 19 11 5 3 4 6 8 8 9 6 5 6 5 5 5 5 6 5 5 4 4 4 5 4 6 6 6 4 5 5 5 4 nan
nan 7 4 9 10 13 11 8 1 6 8 4 4 5 13 16 6 4 5 5 6 6 6 8 7 6 7 7 5 5 5 3 5 4 4 5 5 4 5 5 4 5 6 6 5 4 4 3 nan
nan 8 4 6 10 20 10 6 5 9 2 4 5 5 13 8 5 7 5 6 6 5 5 7 7 8 6 4 5 4 5 4 4 4 5 4 4 5 5 4 4 5 4 5 5 5 4 4 nan
nan 4 8 7 11 10 13 6 9 7 9 6 2 8 12 7 8 7 6 7 6 4 4 6 8 7 4 8 7 4 5 5 5 4 4 3 4 4 3 4 5 6 4 4 4 4 4 4 nan
nan 6 8 3 6 13 12 12 5 7 13 -0 13 20 12 10 6 4 4 5 5 6 5 5 6 6 9 10 8 8 6 5 4 4 3 -0 3 7 6 6 5 4 5 5 5 4 5 4 nan
nan 3 5 9 6 5 7 17 10 13 1 8 19 14 12 8 4 4 3 4 5 6 5 5 5 5 7 7 6 7 6 5 6 7 5 6 7 6 8 9 7 5 5 7 6 6 6 6 nan
nan 7 6 6 8 4 5 8 18 7 7 16 7 5 5 3 3 4 6 7 5 2 5 7 5 6 6 5 4 5 8 7 8 7 6 6 7 6 7 8 8 10 7 7 8 7 8 8 nan
nan 9 10 6 4 8 9 11 11 5 19 16 9 4 1 4 3 4 5 5 7 7 6 5 6 5 4 6 6 7 7 6 7 8 7 6 7 8 8 8 8 6 8 8 6 7 7 7 nan
nan 3 4 7 9 10 8 7 13 18 17 10 8 6 2 3 5 5 6 6 5 6 6 7 6 4 7 6 5 6 7 8 7 7 7 7 7 8 8 8 7 7 7 7 7 7 7 7 nan
nan 7 10 7 10 8 10 9 15 17 13 10 7 4 4 4 3 5 7 6 5 6 7 6 6 6 5 6 7 6 7 8 8 8 9 6 6 7 7 7 6 7 7 7 8 7 7 7 nan
nan 8 13 10 14 9 8 8 15 19 6 6 4 5 5 5 5 6 7 7 5 7 8 6 5 7 6 5 5 7 8 8 7 8 9 7 7 8 7 6 7 6 8 8 6 8 8 8 nan
nan 9 9 12 11 10 7 6 13 20 7 6 6 5 7 8 4 3 8 9 8 10 9 6 6 6 6 6 6 6 8 8 7 7 9 8 6 7 7 7 7 8 8 8 8 8 9 9 nan
nan 13 6 13 9 11 8 9 12 17 20 6 7 6 6 6 6 6 8 8 11 11 8 6 7 7 5 5 8 9 9 7 9 8 8 9 7 6 7 7 8 8 7 7 8 8 8 9 nan
nan 9 15 10 6 10 10 10 9 9 20 21 11 8 8 8 7 4 6 9 12 14 11 6 7 7 6 5 7 9 8 9 10 9 9 9 8 7 5 6 9 8 7 6 8 9 7 8 nan
nan 7 9 7 8 11 7 8 7 8 3 17 19 17 15 9 8 8 9 8 6 9 12 10 7 6 6 6 6 8 8 8 9 12 10 8 9 8 6 5 7 8 7 7 7 9 8 7 nan
nan 7 6 13 12 8 12 7 8 6 11 11 10 15 10 13 12 8 9 9 9 6 6 7 7 6 5 4 6 9 9 8 8 9 11 11 9 8 7 6 6 7 8 8 9 7 7 10 nan
nan 9 13 9 8 8 9 7 8 6 12 7 9 12 13 13 11 8 8 9 7 7 9 11 8 5 4 5 4 6 6 7 9 8 9 12 10 9 8 6 6 6 7 8 9 9 7 8 nan
nan 7 8 9 12 11 5 12 6 8 6 9 7 8 8 7 12 15 10 11 11 10 5 5 10 9 9 8 7 7 5 6 6 8 7 10 13 9 8 7 7 5 5 7 7 9 8 8 nan
nan 7 9 9 8 11 7 14 10 10 10 6 5 7 6 9 8 10 13 11 9 12 12 9 9 8 9 7 6 7 6 6 7 9 10 8 10 12 10 8 7 6 6 9 7 7 8 5 nan
nan 7 8 14 10 7 12 8 11 12 6 3 10 8 6 6 6 7 9 9 10 9 9 9 7 7 9 9 8 8 7 7 6 7 8 7 9 13 11 9 9 9 6 7 9 8 8 7 nan
nan 10 8 7 13 6 7 12 10 15 15 10 9 6 7 7 6 6 6 7 9 9 8 9 9 7 8 8 8 8 8 9 8 7 7 8 7 8 12 12 9 9 9 8 7 9 9 8 nan
nan 9 7 8 8 10 8 8 13 19 18 15 10 7 6 8 8 8 6 7 8 7 7 8 8 8 9 8 9 9 9 7 9 8 9 10 8 7 10 11 10 8 8 9 7 8 9 9 nan
nan 11 11 5 7 12 9 5 13 13 8 12 15 13 9 7 8 9 9 9 7 8 9 9 8 7 8 7 8 9 9 9 9 10 8 9 7 8 10 10 11 10 9 8 7 7 8 9 nan
nan 4 6 11 14 7 10 10 10 5 10 9 8 7 6 9 11 11 12 11 11 10 11 10 10 11 10 11 10 10 9 9 8 10 10 10 10 10 9 10 9 11 13 9 8 7 8 7 nan
nan 10 13 15 8 9 8 10 15 12 11 7 5 7 9 9 9 8 8 10 10 9 10 10 10 11 11 12 11 9 10 10 11 10 9 9 11 12 12 11 11 10 11 12 10 8 8 8 nan
nan nan nan nan nan nan nan nan nan nan nan nan nan nan nan nan nan nan nan nan nan nan nan nan nan nan nan nan nan nan nan nan nan nan nan nan nan nan nan nan nan nan nan nan nan nan nan nan nan
CAPE
1651 882 733 50 490 542 0 2 2 0 15 69 350 460 546 506 175 13 0 11 428 696 734 751 1081 1120 794 958 1409 1592 1690 1517 1718 1884 2263 2491 2780 2767 2142 1998 2200 2036 1719 1327 1417 1759 1882 1649 1372
207 495 52 238 43 0 7 42 84 24 85 137 211 345 385 445 444 88 147 307 408 813 805 838 1445 1045 1031 818 1553 1860 1498 1596 1965 2233 2420 2480 2711 2835 2103 1831 2047 2034 1223 1197 1175 1167 1399 1442 1314
928 1052 21 117 132 34 59 214 236 66 84 129 248 342 442 371 472 298 69 195 396 598 816 713 1333 1091 999 1125 1589 2050 2237 1855 2322 2541 2543 2589 2662 2496 1834 1523 1505 1576 1523 1184 1106 811 1162 1527 1477
271 411 76 43 47 149 57 43 43 156 106 109 339 402 466 511 335 309 103 33 318 651 1083 1800 2080 1541 1149 979 1945 2479 2301 2455 2561 2673 2494 2708 2530 2270 1971 1818 1733 1726 1649 1473 1143 717 747 1272 1257
273 128 12 70 110 196 11 115 157 273 118 395 447 596 452 365 346 333 84 21 320 973 1572 1922 2338 2255 2396 2204 2195 2798 2315 2597 2872 2577 2473 2605 2672 2278 2142 1739 1779 1566 1676 1648 1372 837 869 1157 1333
122 518 221 155 170 280 57 205 301 61 231 372 682 551 334 391 304 215 126 183 715 1250 1637 2081 2705 2678 2395 2103 2226 2261 2363 2609 2893 2923 2796 2599 2149 1997 2103 2096 1766 1683 1697 1552 1707 1129 745 1281 1269
188 165 274 365 315 55 133 164 442 2 4 330 420 528 415 478 403 299 696 743 886 1347 1547 1683 2247 2174 2299 2207 2253 2935 2891 2943 2993 2858 3014 2550 2092 1917 1813 1707 1823 1507 1452 1671 1615 1285 910 661 835
356 143 422 436 106 8 109 163 78 0 6 372 371 406 444 514 284 1056 1184 995 879 1203 1717 1908 1871 1942 2177 2183 2912 3086 2937 2889 2611 2345 1936 1965 1887 1816 1898 2492 2397 1497 1636 1401 1380 1294 1218 899 933
370 420 169 150 28 4 19 13 13 59 251 328 346 413 343 153 908 994 1010 1126 1152 1503 1647 1738 1612 1876 2134 2104 2205 3044 2887 2710 2513 1780 1888 2466 1381 1627 1613 1693 1809 1712 1405 1655 1746 1279 1175 1406 1265
34 6 43 0 0 0 0 4 28 243 280 416 155 234 215 702 728 821 912 1081 1207 1255 1373 1496 1498 1532 1745 2263 2061 2161 1903 1952 1803 1828 1823 1558 1098 1042 1270 1853 1826 1796 1555 1555 1597 1399 1107 1180 811
0 5 0 0 0 0 0 0 624 197 317 132 186 223 355 516 520 626 757 725 918 990 1202 1210 1226 1163 1548 1737 1728 1556 1493 1571 1349 1493 1200 1204 939 975 1299 1275 1488 1305 1631 1228 1719 1593 992 977 925
0 0 0 0 0 0 0 0 0 819 552 128 175 208 229 604 478 292 526 491 649 708 937 1008 1127 1334 1277 1515 1550 1511 1506 1277 1296 1323 1126 1162 961 770 728 1070 1064 933 1074 963 1093 908 738 374 414
0 0 0 0 0 0 0 0 0 152 337 129 130 182 148 280 646 381 407 455 535 464 635 871 1025 1263 1086 1435 1330 1266 1205 1220 1179 1358 1312 1093 669 603 680 951 988 873 767 820 659 619 535 305 188
0 0 0 0 0 0 0 0 0 465 192 95 67 112 91 53 107 443 667 817 681 648 742 689 861 965 1025 1303 977 1085 1001 1096 1078 1319 1310 1468 703 618 827 653 936 921 816 628 623 524 380 233 87
0 0 0 0 0 0 0 0 0 367 174 94 62 37 37 37 31 46 431 902 822 796 936 970 1017 1074 992 1462 968 741 797 1178 1194 1424 1372 1477 1104 878 1013 864 731 838 549 542 264 278 313 253 141
0 0 0 0 0 0 0 0 0 224 198 145 109 53 21 20 24 30 52 443 674 511 1228 1434 1511 1427 1205 1658 1450 1126 1185 1336 1214 1215 1350 1384 1517 1267 1206 1063 678 480 375 522 438 241 593 317 112
0 0 0 0 0 0 0 0 0 0 145 197 158 126 75 34 0 0 41 57 150 1021 1451 1507 1487 1536 1473 1621 1637 1530 952 1265 1399 1410 1522 1299 1369 1289 1190 1069 969 593 543 544 394 275 394 336 188
0 0 0 0 0 0 0 0 0 0 0 375 320 232 250 160 52 10 162 268 315 1252 1531 1521 1498 1640 1676 1408 1523 1193 920 838 702 1386 1719 1410 1135 1124 1079 908 768 769 922 739 454 297 264 203 228
0 0 0 0 0 0 0 0 0 0 26 608 539 692 520 462 585 563 1090 794 508 891 1596 1689 1621 1637 1796 1613 1480 1310 1220 1192 1093 847 1616 1502 1251 1181 1052 975 914 870 956 995 553 310 275 162 217
0 0 0 0 0 0 0 0 0 6 148 892 1177 874 1086 1317 1096 1159 1254 967 654 905 1294 1597 1531 1538 1803 1704 1375 1303 1131 1011 1187 952 1107 1460 1552 1644 1248 1130 1061 826 1005 985 791 472 518 252 390
0 0 0 0 0 0 0 0 0 0 563 977 1299 1505 1601 1595 1581 1566 1331 1256 718 1047 1645 1836 1600 1525 1596 1621 1421 1604 1532 1427 1160 1187 959 1527 1620 1555 1626 1330 1116 687 660 730 833 550 510 514 650
0 0 0 0 0 0 0 0 0 0 341 1012 1273 1579 1690 1575 1481 1765 1704 1655 1319 1760 1567 1926 1755 1467 1510 1880 1818 1771 1681 1659 1650 1368 1232 943 1812 1821 1534 1360 1228 832 647 693 656 920 885 589 694
0 0 0 0 0 0 0 0 0 0 211 550 940 1402 1438 1333 1122 1127 1729 2011 1903 1986 2210 1744 2412 1898 1853 1930 2224 2050 1900 1788 1735 1654 1583 1188 1071 1967 1792 1597 1504 1204 904 791 814 1046 1184 1011 902
0 0 0 0 0 0 0 0 0 0 94 62 205 925 1302 927 707 611 1209 1517 2048 2474 2711 2581 2579 2621 2332 1855 2166 2275 2339 2259 2077 1923 1875 1519 1505 1367 1931 1822 1601 1599 1452 1193 1137 956 1236 1480 1303
0 0 0 0 0 0 0 0 0 0 1 80 140 469 716 604 461 468 518 417 401 1086 2440 3034 2635 2554 2765 2916 2754 2528 2311 2092 2287 2093 2028 1943 1623 1517 1527 1562 1675 1586 1566 1516 1300 1281 1406 1544 1644
0 0 0 0 0 0 0 0 0 0 2 32 104 240 236 303 540 708 583 510 593 569 543 995 1747 1637 2205 3037 3125 2953 2614 2412 2359 2409 2169 1984 1915 1578 1603 1294 1481 1482 1101 1100 1183 1071 1110 1485 1609
0 0 0 0 0 0 0 0 0 0 0 0 0 133 283 429 544 681 531 481 517 525 543 732 753 776 890 1150 1198 1372 2077 2400 2497 2386 2313 2391 2203 2169 1579 1536 1362 1347 1480 1290 1345 1424 1193 1079 1435
0 0 0 0 0 0 0 0 0 0 0 0 1 38 21 0 1 55 84 224 216 211 249 243 506 885 969 1149 1281 1493 1690 1939 2114 2108 2109 2090 2233 2174 2234 2252 1661 1029 1579 1672 1351 1471 1573 1486 1188
0 0 0 0 0 0 0 0 0 0 0 0 0 0 0 0 0 1 2 0 2 128 136 168 239 417 741 1066 1209 1110 1136 1118 1534 1550 1567 1678 1769 1961 2221 2338 2235 1868 940 1526 1654 1699 1553 1562 1655
0 0 0 0 0 0 0 0 0 0 0 0 0 0 13 9 5 0 0 64 74 98 166 329 386 542 729 685 869 918 1115 969 889 874 1018 1137 1327 1580 1773 1967 2173 2268 2001 829 1462 1581 1719 1703 1690